Time,TemperatureF,DewpointF,PressureIn,WindDirection,WindDirectionDegrees,WindSpeedMPH,WindSpeedGustMPH,Humidity,HourlyPrecipIn,Conditions,Clouds,dailyrainin,SoftwareType,DateUTC
2013-06-28 00:12:00,72.0,-99.9,-100.00,SW,232,6.0,7.0,-999,-99.99,,,-99.99,,2013-06-28 05:12:00,
2013-06-28 00:22:00,72.0,-99.9,-100.00,SW,232,6.0,7.0,-999,-99.99,,,-99.99,,2013-06-28 05:22:00,
2013-06-28 00:33:00,72.0,-99.9,-100.00,SW,232,6.0,7.0,-999,-99.99,,,-99.99,,2013-06-28 05:33:00,
2013-06-28 00:43:00,72.0,-99.9,-100.00,SW,232,6.0,7.0,-999,-99.99,,,-99.99,,2013-06-28 05:43:00,
2013-06-28 00:50:00,71.0,-99.9,-100.00,WSW,246,7.0,8.0,-999,-99.99,,,-99.99,,2013-06-28 05:50:00,
2013-06-28 01:12:00,71.0,-99.9,-100.00,WSW,246,7.0,8.0,-999,-99.99,,,-99.99,,2013-06-28 06:12:00,
2013-06-28 01:22:00,71.0,-99.9,-100.00,WSW,246,7.0,8.0,-999,-99.99,,,-99.99,,2013-06-28 06:22:00,
2013-06-28 01:34:00,71.0,-99.9,-100.00,WSW,246,7.0,8.0,-999,-99.99,,,-99.99,,2013-06-28 06:34:00,
2013-06-28 01:43:00,71.0,-99.9,-100.00,WSW,246,7.0,8.0,-999,-99.99,,,-99.99,,2013-06-28 06:43:00,
2013-06-28 02:43:00,72.0,-99.9,-100.00,West,263,9.0,20.0,-999,-99.99,,,-99.99,,2013-06-28 07:43:00,
2013-06-28 02:50:00,72.0,-99.9,-100.00,West,266,14.0,16.0,-999,-99.99,,,-99.99,,2013-06-28 07:50:00,
2013-06-28 02:52:00,72.0,-99.9,-100.00,West,263,9.0,20.0,-999,-99.99,,,-99.99,,2013-06-28 07:52:00,
2013-06-28 03:11:00,72.0,-99.9,-100.00,West,266,14.0,16.0,-999,-99.99,,,-99.99,,2013-06-28 08:11:00,
2013-06-28 03:22:00,72.0,-99.9,-100.00,West,266,14.0,16.0,-999,-99.99,,,-99.99,,2013-06-28 08:22:00,
2013-06-28 03:33:00,72.0,-99.9,-100.00,West,266,14.0,16.0,-999,-99.99,,,-99.99,,2013-06-28 08:33:00,
2013-06-28 03:43:00,72.0,-99.9,-100.00,West,266,14.0,16.0,-999,-99.99,,,-99.99,,2013-06-28 08:43:00,
2013-06-28 03:50:00,70.0,-99.9,-100.00,WNW,284,8.0,10.0,-999,-99.99,,,-99.99,,2013-06-28 08:50:00,
2013-06-28 04:12:00,70.0,-99.9,-100.00,WNW,284,8.0,10.0,-999,-99.99,,,-99.99,,2013-06-28 09:12:00,
2013-06-28 04:22:00,70.0,-99.9,-100.00,WNW,284,8.0,10.0,-999,-99.99,,,-99.99,,2013-06-28 09:22:00,
2013-06-28 04:33:00,70.0,-99.9,-100.00,WNW,284,8.0,10.0,-999,-99.99,,,-99.99,,2013-06-28 09:33:00,
2013-06-28 04:42:00,70.0,-99.9,-100.00,WNW,284,8.0,10.0,-999,-99.99,,,-99.99,,2013-06-28 09:42:00,
2013-06-28 04:50:00,70.0,-99.9,-100.00,WNW,300,8.0,10.0,-999,-99.99,,,-99.99,,2013-06-28 09:50:00,
2013-06-28 05:12:00,70.0,-99.9,-100.00,WNW,300,8.0,10.0,-999,-99.99,,,-99.99,,2013-06-28 10:12:00,
2013-06-28 05:22:00,70.0,-99.9,-100.00,WNW,300,8.0,10.0,-999,-99.99,,,-99.99,,2013-06-28 10:22:00,
2013-06-28 05:33:00,70.0,-99.9,-100.00,WNW,300,8.0,10.0,-999,-99.99,,,-99.99,,2013-06-28 10:33:00,
2013-06-28 05:42:00,70.0,-99.9,-100.00,WNW,300,8.0,10.0,-999,-99.99,,,-99.99,,2013-06-28 10:42:00,
2013-06-28 05:50:00,70.0,-99.9,-100.00,West,278,5.0,8.0,-999,-99.99,,,-99.99,,2013-06-28 10:50:00,
2013-06-28 06:11:00,70.0,-99.9,-100.00,West,278,5.0,8.0,-999,-99.99,,,-99.99,,2013-06-28 11:11:00,
2013-06-28 06:22:00,70.0,-99.9,-100.00,West,278,5.0,8.0,-999,-99.99,,,-99.99,,2013-06-28 11:22:00,
2013-06-28 06:34:00,70.0,-99.9,-100.00,West,278,5.0,8.0,-999,-99.99,,,-99.99,,2013-06-28 11:34:00,
2013-06-28 06:43:00,70.0,-99.9,-100.00,West,278,5.0,8.0,-999,-99.99,,,-99.99,,2013-06-28 11:43:00,
2013-06-28 07:12:00,70.0,-99.9,-100.00,West,272,5.0,8.0,-999,-99.99,,,-99.99,,2013-06-28 12:12:00,
2013-06-28 07:22:00,70.0,-99.9,-100.00,West,272,5.0,8.0,-999,-99.99,,,-99.99,,2013-06-28 12:22:00,
2013-06-28 07:34:00,70.0,-99.9,-100.00,West,272,5.0,8.0,-999,-99.99,,,-99.99,,2013-06-28 12:34:00,
2013-06-28 07:50:00,71.0,-99.9,-100.00,West,265,7.0,9.0,-999,-99.99,,,-99.99,,2013-06-28 12:50:00,
2013-06-28 07:52:00,70.0,-99.9,-100.00,West,270,5.0,16.0,-999,-99.99,,,-99.99,,2013-06-28 12:52:00,
2013-06-28 08:11:00,71.0,-99.9,-100.00,West,265,7.0,9.0,-999,-99.99,,,-99.99,,2013-06-28 13:11:00,
2013-06-28 08:23:00,71.0,-99.9,-100.00,West,265,7.0,9.0,-999,-99.99,,,-99.99,,2013-06-28 13:23:00,
2013-06-28 08:33:00,71.0,-99.9,-100.00,West,265,7.0,9.0,-999,-99.99,,,-99.99,,2013-06-28 13:33:00,
2013-06-28 08:43:00,71.0,-99.9,-100.00,West,265,7.0,9.0,-999,-99.99,,,-99.99,,2013-06-28 13:43:00,
2013-06-28 08:50:00,71.0,-99.9,-100.00,West,266,6.0,7.0,-999,-99.99,,,-99.99,,2013-06-28 13:50:00,
2013-06-28 09:12:00,71.0,-99.9,-100.00,West,266,6.0,7.0,-999,-99.99,,,-99.99,,2013-06-28 14:12:00,
2013-06-28 09:22:00,71.0,-99.9,-100.00,West,266,6.0,7.0,-999,-99.99,,,-99.99,,2013-06-28 14:22:00,
2013-06-28 09:33:00,71.0,-99.9,-100.00,West,266,6.0,7.0,-999,-99.99,,,-99.99,,2013-06-28 14:33:00,
2013-06-28 09:44:00,71.0,-99.9,-100.00,West,266,6.0,7.0,-999,-99.99,,,-99.99,,2013-06-28 14:44:00,
2013-06-28 09:50:00,71.0,-99.9,-100.00,NNW,333,4.0,6.0,-999,-99.99,,,-99.99,,2013-06-28 14:50:00,
2013-06-28 10:11:00,71.0,-99.9,-100.00,NNW,333,4.0,6.0,-999,-99.99,,,-99.99,,2013-06-28 15:11:00,
2013-06-28 10:24:00,71.0,-99.9,-100.00,NNW,333,4.0,6.0,-999,-99.99,,,-99.99,,2013-06-28 15:24:00,
2013-06-28 10:34:00,71.0,-99.9,-100.00,NNW,333,4.0,6.0,-999,-99.99,,,-99.99,,2013-06-28 15:34:00,
2013-06-28 10:43:00,71.0,-99.9,-100.00,NNW,333,4.0,6.0,-999,-99.99,,,-99.99,,2013-06-28 15:43:00,
2013-06-28 11:11:00,71.0,-99.9,-100.00,NNE,13,5.0,8.0,-999,-99.99,,,-99.99,,2013-06-28 16:11:00,
2013-06-28 11:25:00,71.0,-99.9,-100.00,NNE,13,5.0,8.0,-999,-99.99,,,-99.99,,2013-06-28 16:25:00,
2013-06-28 12:22:00,75.0,-99.9,-100.00,ENE,70,4.0,4.0,-999,-99.99,,,-99.99,,2013-06-28 17:22:00,
2013-06-28 12:33:00,75.0,-99.9,-100.00,ENE,70,4.0,4.0,-999,-99.99,,,-99.99,,2013-06-28 17:33:00,
2013-06-28 12:44:00,75.0,-99.9,-100.00,ENE,70,4.0,4.0,-999,-99.99,,,-99.99,,2013-06-28 17:44:00,
2013-06-28 13:22:00,74.0,-99.9,-100.00,ENE,68,7.0,8.0,-999,-99.99,,,-99.99,,2013-06-28 18:22:00,
2013-06-28 13:50:00,75.0,-99.9,-100.00,ENE,61,6.0,6.0,-999,-99.99,,,-99.99,,2013-06-28 18:50:00,
2013-06-28 14:11:00,75.0,-99.9,-100.00,ENE,61,6.0,6.0,-999,-99.99,,,-99.99,,2013-06-28 19:11:00,
2013-06-28 14:22:00,75.0,-99.9,-100.00,ENE,61,6.0,6.0,-999,-99.99,,,-99.99,,2013-06-28 19:22:00,
2013-06-28 14:33:00,75.0,-99.9,-100.00,ENE,61,6.0,6.0,-999,-99.99,,,-99.99,,2013-06-28 19:33:00,
2013-06-28 14:43:00,75.0,-99.9,-100.00,ENE,61,6.0,6.0,-999,-99.99,,,-99.99,,2013-06-28 19:43:00,
2013-06-28 14:50:00,77.0,-99.9,-100.00,NE,47,3.0,5.0,-999,-99.99,,,-99.99,,2013-06-28 19:50:00,
2013-06-28 15:11:00,77.0,-99.9,-100.00,NE,47,3.0,5.0,-999,-99.99,,,-99.99,,2013-06-28 20:11:00,
2013-06-28 15:22:00,77.0,-99.9,-100.00,NE,47,3.0,5.0,-999,-99.99,,,-99.99,,2013-06-28 20:22:00,
2013-06-28 15:33:00,77.0,-99.9,-100.00,NE,47,3.0,5.0,-999,-99.99,,,-99.99,,2013-06-28 20:33:00,
2013-06-28 15:43:00,77.0,-99.9,-100.00,NE,47,3.0,5.0,-999,-99.99,,,-99.99,,2013-06-28 20:43:00,
2013-06-28 16:11:00,75.0,-99.9,-100.00,NE,55,6.0,6.0,-999,-99.99,,,-99.99,,2013-06-28 21:11:00,
2013-06-28 16:23:00,75.0,-99.9,-100.00,NE,55,6.0,6.0,-999,-99.99,,,-99.99,,2013-06-28 21:23:00,
2013-06-28 16:34:00,75.0,-99.9,-100.00,NE,55,6.0,6.0,-999,-99.99,,,-99.99,,2013-06-28 21:34:00,
2013-06-28 17:11:00,70.0,-99.9,-100.00,West,267,3.0,7.0,-999,-99.99,,,-99.99,,2013-06-28 22:11:00,
2013-06-28 17:34:00,68.0,-99.9,-100.00,West,281,15.0,0.0,-999,-99.99,,,-99.99,,2013-06-28 22:34:00,
2013-06-28 17:43:00,68.0,-99.9,-100.00,West,281,15.0,0.0,-999,-99.99,,,-99.99,,2013-06-28 22:43:00,
2013-06-28 17:53:00,68.0,-99.9,-100.00,West,281,15.0,0.0,-999,-99.99,,,-99.99,,2013-06-28 22:53:00,
2013-06-28 18:50:00,71.0,-99.9,-100.00,NNE,30,5.0,7.0,-999,-99.99,,,-99.99,,2013-06-28 23:50:00,
2013-06-28 19:12:00,71.0,-99.9,-100.00,NNE,30,5.0,7.0,-999,-99.99,,,-99.99,,2013-06-29 00:12:00,
2013-06-28 19:23:00,71.0,-99.9,-100.00,NNE,30,5.0,7.0,-999,-99.99,,,-99.99,,2013-06-29 00:23:00,
2013-06-28 19:34:00,71.0,-99.9,-100.00,NNE,30,5.0,7.0,-999,-99.99,,,-99.99,,2013-06-29 00:34:00,
2013-06-28 19:42:00,71.0,-99.9,-100.00,NNE,30,5.0,7.0,-999,-99.99,,,-99.99,,2013-06-29 00:42:00,
2013-06-28 19:50:00,71.0,-99.9,-100.00,WSW,240,9.0,10.0,-999,-99.99,,,-99.99,,2013-06-29 00:50:00,
2013-06-28 20:11:00,71.0,-99.9,-100.00,WSW,240,9.0,10.0,-999,-99.99,,,-99.99,,2013-06-29 01:11:00,
2013-06-28 20:22:00,71.0,-99.9,-100.00,WSW,240,9.0,10.0,-999,-99.99,,,-99.99,,2013-06-29 01:22:00,
2013-06-28 20:32:00,71.0,-99.9,-100.00,WSW,240,9.0,10.0,-999,-99.99,,,-99.99,,2013-06-29 01:32:00,
2013-06-28 20:42:00,71.0,-99.9,-100.00,WSW,240,9.0,10.0,-999,-99.99,,,-99.99,,2013-06-29 01:42:00,
2013-06-28 20:50:00,69.0,-99.9,-100.00,SW,220,9.0,10.0,-999,-99.99,,,-99.99,,2013-06-29 01:50:00,
2013-06-28 21:11:00,69.0,-99.9,-100.00,SW,220,9.0,10.0,-999,-99.99,,,-99.99,,2013-06-29 02:11:00,
2013-06-28 21:21:00,69.0,-99.9,-100.00,SW,220,9.0,10.0,-999,-99.99,,,-99.99,,2013-06-29 02:21:00,
2013-06-28 21:31:00,69.0,-99.9,-100.00,SW,220,9.0,10.0,-999,-99.99,,,-99.99,,2013-06-29 02:31:00,
2013-06-28 21:41:00,69.0,-99.9,-100.00,SW,220,9.0,10.0,-999,-99.99,,,-99.99,,2013-06-29 02:41:00,
2013-06-28 21:50:00,70.0,-99.9,-100.00,West,271,10.0,12.0,-999,-99.99,,,-99.99,,2013-06-29 02:50:00,
2013-06-28 22:11:00,70.0,-99.9,-100.00,West,271,10.0,12.0,-999,-99.99,,,-99.99,,2013-06-29 03:11:00,
2013-06-28 22:21:00,70.0,-99.9,-100.00,West,271,10.0,12.0,-999,-99.99,,,-99.99,,2013-06-29 03:21:00,
2013-06-28 22:32:00,70.0,-99.9,-100.00,West,271,10.0,12.0,-999,-99.99,,,-99.99,,2013-06-29 03:32:00,
2013-06-28 22:41:00,70.0,-99.9,-100.00,West,271,10.0,12.0,-999,-99.99,,,-99.99,,2013-06-29 03:41:00,
2013-06-28 22:50:00,70.0,-99.9,-100.00,NW,317,12.0,14.0,-999,-99.99,,,-99.99,,2013-06-29 03:50:00,
2013-06-28 23:11:00,70.0,-99.9,-100.00,NW,317,12.0,14.0,-999,-99.99,,,-99.99,,2013-06-29 04:11:00,
2013-06-28 23:26:00,70.0,-99.9,-100.00,NW,317,12.0,14.0,-999,-99.99,,,-99.99,,2013-06-29 04:26:00,
2013-06-28 23:32:00,70.0,-99.9,-100.00,NW,317,12.0,14.0,-999,-99.99,,,-99.99,,2013-06-29 04:32:00,
2013-06-28 23:41:00,70.0,-99.9,-100.00,NW,317,12.0,14.0,-999,-99.99,,,-99.99,,2013-06-29 04:41:00,
2013-06-28 23:50:00,70.0,-99.9,-100.00,NW,316,7.0,9.0,-999,-99.99,,,-99.99,,2013-06-29 04:50:00,